User: anonymous   Login
Location: Unspecified
(0.0000°N, 0.0000°E)
Time: 13:59:40
(UTC+02:00)
Language:

Cosmos 1980 Rocket - Orbit

View from above orbital plane
View from above orbital plane
View from above satellite
View from above satellite

Ground track
Ground track

The orbit data is extracted from the following two-line orbital elements,

1 19650U 88102B   16206.80564328 -.00000285  00000-0 -12041-3 0  9999
2 19650  71.0007 343.4789 0015885 314.7884  45.1946 14.15742279429655
Epoch (UTC): 24 July 2016 19:20:07
Eccentricity: 0.0015885
inclination: 71.0007°
perigee height: 828 km
apogee height: 851 km
right ascension of ascending node: 343.4789°
argument of perigee: 314.7884°
revolutions per day: 14.15742279
mean anomaly at epoch: 45.1946°
orbit number at epoch: 42965

The dashed part of the orbit path shows where the satellite is in the earth's shadow,  

DLR